Terminal Aerodrome Forecast
Issued by NWS Blacksburg, VA

Home | Current Version | Previous Version | Text Only | Print | Product List | Glossary On
Versions: 1 2 3 4 5 6 7 8 9 10 11 12 13 14 15 16 17 18 19 20 21 22 23 24 25 26 27 28 29 30 31 32 33 34 35 36 37 38 39 40 41 42 43 44
000
FTUS41 KRNK 261230 AAA
TAFDAN
TAF AMD
KDAN 261230Z 2613/2712 03012G22KT 5SM -RA BR FEW012 OVC040
     FM262100 35008KT 6SM BR OVC015
     FM270000 VRB03KT P6SM SCT015 OVC050
     FM270600 00000KT 4SM BR SCT040 BKN100=

USA.gov is the U.S. government's official web portal to all federal, state and local government web resources and services.